map of CFB home
CFB - Airport
Location
City:  Cabo Frio, Rio de Janeiro, Brazil
Name:Cabo Frio International Airport
ICAO:SBCB
IATA:CFB

Details
Type:Airport (Aerodrome, Airfield)
Use:International (customs port of entry)
Latitude:2255'18"S (-22.921680)
Longitude:4204'27"W (-42.074268)
Datum:WGS 1984
Elevation:14 ft (4 m)
Variation:23.09W (WMM2015 magnetic declination)
-0.09 annual change
Runways:1
Longest:5577 × 98 ft (1700 × 30 m), paved

Time
Time Zone:UTC-3 (DST-2)
Local Time:

Weather
METAR:SBCB 272100Z 12005KT 9999 FEW020 SCT050 23/20 Q1024
TAF:SBCB 280240Z 2806/2906 05007KT 7000 SCT016 TN17/2809Z TX28/2816Z
BECMG 2810/2812 08012KT SCT023
BECMG 2814/2816 10018KT 9999 FEW030
BECMG 2821/2823 07007KT
RMK PGB

Related Locations
Nearby:
Farthest:IWO: 12192 mi / 19621 km
Iwo Jima [Iwo Jima AB], Iwo Jima Island, 13, JP

Find:

   beyond  
but within

Other Information
Maps:
NOTAMs:
Links:
Sources:

  
flag of Brazil
flag of Rio de Janeiro
  

Sectional Chart

Flight Planning
at skyvector.com

Satellite Image

Google Maps Satellite view

 

Copyright © 2004-2017 Karl L. Swartz. All rights reserved.
The Great Circle Mapper name and logo are trademarks of the Great Circle Mapper.
All other trademarks mentioned herein belong to their respective owners.
Please see credits for attibutions and further copyright information.

  Follow gcmap on Facebook Follow gcmap on Twitter Follow gcmap on Google+ GCmap on LinkedIn

hCard Microformat

Geo Microformat